Location: Regensburg
(48.4565°N, 10.3217°E)
Time: 16:40:07
(UTC+01:00)

ISS - Pass Details

Date: 15 November 2017
Orbit: 402 x 407 km, 51.6° (Epoch: 22 November)

Event Time Altitude Azimuth Distance (km) Brightness Sun altitude
Exits shadow 04:55:20 29° 113° (ESE) 766 -1.9 -24.9°
Drops below altitude 10° 04:57:05 10° 113° (ESE) 1,453 -0.1 -24.6°
Sets 04:59:09 0° 113° (ESE) 2,310 1.1 -24.3°
